Starlink 34417

operational
NORAD ID: 64617 Int'l Des: 2025-137 Owner: SPXS Country: US Constellation: starlink
LEOCIRCULAR

Über Starlink 34417

Beschreibung wird geladen...

Live-Position

3D-Globus wird geladen...

Nächste Überflüge

Höhenverlauf

Altitude vs Time

uPlot chart will show altitude changes over time

Zweizeiliger Elementsatz

1 64617U 25137Z 25341.14423872 .00065372 00000-0 16272-2 0 9991
2 64617 53.1576 35.0894 0002298 82.1831 277.9434 15.39676074 26806
Epoch: 7. Dez. 2025 • Age: 20 hours

Aktueller Status

Höhe 458.2 km
Geschwindigkeit 7.64 km/s
Subsatellitenpunkt -33.52°S, 68.29°W
Startdatum 25. Juni 2025
Alter 0.4 years
Typ internet

Technische Details

Klassifizierung Payload
Masse 575.00 kg
Trockenmasse 530.00 kg
Gesamtmasse 575.00 kg
Länge 0.30 m
Durchmesser 4.10 m
Spannweite 29.00 m
Form Box + pan
Hersteller SPXS
Bus-Typ Starlink V2MO
Phasenstatus In Orbit
Besitzer/Staat SPXS/US

Große Konstellationen

Loading constellations...